#timestamp,LO_Frequency,Hit,StdDev 
1505995215.9,286046998.6,N
1505995235.7,286046999.4,N
1505995255.6,286046998.4,N
1505995275.4,286046993.8,N
1505995295.2,286046994.0,N
1505995315.1,286046992.0,Y
1505995316.0,286046992.0,P
1505995335.8,286046992.0,N
1505995355.6,286046996.0,N
1505995375.5,286047002.7,N
1505995395.3,286047000.3,N
1505995415.1,286046997.5,N
1505995435.9,286047002.5,N
1505995455.7,286046996.6,N
1505995475.5,286046997.0,N
1505995495.4,286047001.1,N
1505995515.2,286047001.3,N
1505995535.0,286047004.1,N
1505995535.9,286047004.1,N
1505995555.7,286047005.4,N
1505995575.6,286047006.9,N
1505995595.4,286047007.2,N
1505995615.2,286047005.2,N
1505995635.1,286047001.3,N
1505995636.0,286047001.3,N
1505995655.8,286047002.8,N
1505995675.6,286047005.7,N
1505995695.5,286047002.5,N
1505995715.3,286046999.2,N
1505995735.1,286047000.1,N
1505995755.9,286047002.7,N
1505995775.7,286047000.1,N
1505995795.5,286047004.1,N
1505995815.4,286047003.5,N
1505995835.2,286047001.3,N
1505995855.0,286047004.1,N
1505995855.9,286047004.1,N
1505995875.7,286047002.6,N
1505995895.6,286047002.0,N
1505995915.4,286047002.6,N
1505995935.2,286046999.6,N
1505995955.1,286047001.6,N
1505995956.0,286047001.6,N
1505995975.8,286046999.8,N
1505995995.6,286047004.3,N
1505996015.5,286047001.0,N
1505996035.3,286046998.2,N
1505996055.1,286046997.9,N
1505996075.9,286046999.7,N
1505996095.7,286047005.6,N
1505996115.5,286047004.8,N
1505996135.4,286047004.7,N
1505996155.2,286047003.7,N
1505996175.0,286047002.2,N
1505996175.9,286047002.2,N
1505996195.8,286047002.2,N
1505996215.6,286046999.8,N
1505996235.4,286047003.7,N
1505996255.2,286047002.9,N
1505996275.1,286047005.0,N
1505996276.0,286047005.0,N
1505996295.8,286047005.9,N
1505996315.7,286047007.2,Y
1505996335.5,286047000.5,P
1505996355.3,286046997.9,N
1505996375.1,286046994.2,P
1505996395.9,286046998.4,N
1505996415.7,286047001.0,N
1505996435.5,286046999.0,N
1505996455.4,286046998.2,N
1505996475.2,286046995.4,N
1505996495.0,286046995.1,N
1505996495.9,286046995.1,N
1505996515.8,286046995.1,N
1505996535.6,286046997.2,N
1505996555.4,286046996.2,N
1505996575.3,286046996.2,N
1505996595.1,286046996.6,N
1505996596.0,286046996.6,N
1505996615.8,286046997.3,N
1505996635.7,286046996.2,N
1505996655.5,286046996.2,N
1505996675.3,286046993.6,Y
1505996695.2,286046997.0,P
1505996715.9,286047000.9,P
1505996735.7,286047005.3,N
1505996755.5,286046999.9,N
1505996775.4,286047003.4,N
1505996795.2,286047006.8,N
1505996815.0,286047004.1,N
1505996815.9,286047004.1,N
1505996835.8,286047004.3,N
1505996855.6,286047000.1,N
1505996875.4,286046999.1,N
1505996895.3,286046999.5,N
1505996915.1,286047000.3,N
1505996935.8,286047005.6,N
1505996955.7,286047003.7,N
1505996975.5,286047005.6,N
1505996995.3,286047004.2,N
1505997015.2,286047003.3,N
1505997035.9,286047005.7,N
1505997055.7,286047004.2,N
1505997075.6,286047006.8,N
1505997095.4,286047005.2,N
1505997115.2,286047002.5,N
1505997135.0,286047000.4,N
1505997135.9,286047000.4,N
1505997155.8,286046998.8,N
1505997175.6,286046999.5,N
1505997195.4,286047001.6,N
1505997215.3,286047002.4,N
1505997235.1,286046997.1,N
1505997255.8,286046996.9,N
1505997275.7,286046998.1,N
1505997295.5,286047000.5,N
1505997315.3,286047001.5,N
1505997335.2,286047005.9,N
1505997355.9,286047000.3,N
1505997375.7,286047003.5,N
1505997395.6,286047003.9,N
1505997415.4,286047004.0,N
1505997435.2,286047002.5,N
1505997455.0,286047001.3,N
1505997456.0,286047001.3,N
1505997475.8,286047004.3,N
1505997495.6,286047004.4,N
1505997515.4,286047002.3,N
1505997535.3,286047000.0,N
1505997555.1,286046996.5,N
1505997575.8,286047000.2,N
1505997595.7,286047003.1,N
1505997615.5,286047007.5,N
1505997635.3,286047000.4,N
1505997655.2,286046999.5,N
1505997675.9,286046997.5,N
1505997695.7,286046996.9,N
1505997715.6,286047000.3,N
1505997735.4,286046998.8,N
1505997755.2,286046996.9,N
1505997775.1,286046997.6,N
1505997776.0,286046997.6,N
1505997795.8,286046999.1,N
1505997815.6,286046995.4,N
1505997835.5,286047001.1,N
1505997855.3,286046999.9,N
1505997875.1,286047001.0,N
1505997895.9,286046998.5,N
1505997915.7,286046998.8,N
1505997935.5,286046997.1,N
1505997955.3,286046995.9,N
1505997975.2,286046995.6,N
1505997995.0,286047001.5,N
1505997995.9,286047001.5,N
1505998015.7,286046997.3,N
1505998035.6,286046999.9,N
1505998055.4,286046998.4,N
1505998075.2,286046999.6,N
1505998095.1,286046998.6,N
1505998096.0,286046998.6,N
1505998115.8,286047001.5,N
1505998135.6,286047000.2,N
1505998155.5,286046998.4,N
1505998175.3,286046999.3,N
1505998195.1,286046993.3,Y
1505998215.9,286046997.8,P
1505998235.7,286046995.3,P
1505998255.5,286046999.0,N
1505998275.4,286046998.0,N
1505998295.2,286046992.2,Y
1505998315.0,286046992.3,P
1505998315.9,286046992.3,N
1505998335.8,286046993.0,N
1505998355.6,286046994.6,N
1505998375.4,286046999.0,N
1505998395.3,286046997.0,N
1505998415.1,286046998.2,N
1505998416.0,286046998.2,N
1505998435.8,286046999.2,N
1505998455.7,286046996.2,N
1505998475.5,286046995.2,N
1505998495.3,286046998.0,N
1505998515.1,286046996.7,N
1505998535.9,286046998.6,N
1505998555.7,286047001.9,N
1505998575.5,286047001.4,N
1505998595.4,286047003.8,N
1505998615.2,286047005.9,N
1505998635.0,286047007.0,N
1505998635.9,286047007.0,N
1505998655.8,286047008.5,N
1505998675.6,286047008.1,N
1505998695.4,286047013.7,N
1505998715.3,286047010.8,N
1505998735.1,286047005.5,N
1505998736.0,286047005.5,N
1505998755.8,286047007.4,N
1505998775.7,286047008.8,N
1505998795.5,286047007.1,N
